Meath Environmental Platform

Observations for Trim Market St

Time AQI Temp °C Hum % Pres Pa CO μg/m³ H₂S μg/m³ NO μg/m³ NO₂ μg/m³ O₃ μg/m³ SO₂ μg/m³ PM1 μg/m³ PM2.5 μg/m³ PM10 μg/m³
Thursday 27 August 2026
00:50 3 16.5 82 2,147,483,647 0.29 0 2.13 6.18 41.81 0 15.68 19.33 30.21
00:49 3 16.5 82 2,147,483,647 0.29 0 2.15 5.93 43.73 0 16.39 18.4 29.1
00:48 3 16.5 82 2,147,483,647 0.29 0 2.16 7.91 53.9 0 13.54 17 25.8
00:47 3 16.5 82 2,147,483,647 0.28 0 2.14 7.7 49 0 17.1 19.81 30.79
00:46 3 16.5 82 2,147,483,647 0.28 0 2.16 6.24 43.47 0 16.39 19.34 30.23
00:45 3 16.5 82 2,147,483,647 0.28 0 2.15 7.33 41.75 0 16.39 18.4 30.23
00:40 3 16.5 82 2,147,483,647 0.28 0 2.11 5.92 52.21 0 16.39 20.76 31.37
00:37 3 16.5 82 2,147,483,647 0.28 0 2.11 6.93 48.11 0 15.68 20.29 31.37
00:33 3 16.6 82 2,147,483,647 0.28 0 2.09 7.02 48.93 0 15.68 18.89 28.62
00:30 3 16.6 82 2,147,483,647 0.28 0 2.09 6.82 49.21 0 15.68 18.43 28.64
00:28 3 16.6 82 2,147,483,647 0.28 0 2.11 6.76 47.07 0 16.39 19.85 30.33
00:22 3 16.7 82 2,147,483,647 0.3 0 2.08 7.25 51 0 15.68 18.44 28.66
00:21 3 16.7 82 2,147,483,647 0.3 0 2.08 7.74 49.44 0 15.68 18.91 30.89
00:20 3 16.7 82 2,147,483,647 0.27 0 2.08 7.59 49.72 0 17.81 21.27 32.03
00:19 3 16.7 82 2,147,483,647 0.29 0 2.08 7.59 45.85 0 17.1 20.8 32.58
00:18 3 16.7 82 2,147,483,647 0.32 0 2.08 8.09 49.11 0 14.96 19.86 33.14
00:17 3 16.8 82 2,147,483,647 0.28 0 2.07 6.91 49.32 0 17.81 18.45 27.57
00:16 3 16.8 82 2,147,483,647 0.29 0 2.07 6.8 48.03 0 17.1 20.33 30.91
00:15 3 16.8 82 2,147,483,647 0.29 0 2.07 7.66 51.04 0 17.1 20.81 31.5
00:14 3 16.8 82 2,147,483,647 0.28 0 2.07 7.47 48.35 0 15.68 19.4 30.38